Regional Weather Roundup
Issued by NWS

Home | Current Version | Previous Version | Text Only | Print | Product List | Glossary On
Versions: 1 2 3 4 5 6 7 8 9 10 11 12 13 14 15 16 17 18 19 20 21 22 23 24 25 26 27 28 29 30 31 32 33 34 35 36 37 38 39 40 41 42 43 44 45 46 47 48 49 50
000
ASUS43 KLOT 201710
RWRIL

ILLINOIS REGIONAL WEATHER ROUNDUP
NATIONAL WEATHER SERVICE CHICAGO/ROMEOVILLE IL
1100 AM CST SAT DEC 20 2014

NOTE: "FAIR" INDICATES FEW OR NO CLOUDS BELOW 12,000 FEET WITH NO
SIGNIFICANT WEATHER AND/OR OBSTRUCTIONS TO VISIBILITY.

* THESE STATIONS ARE NOT UNDER NWS QUALITY CONTROL. THEY ALSO MAY NOT
  REPORT WEATHER SUCH AS PRECIPITATION OR FOG.

ILZ001-002-007-009-015-016-024-201800-
NORTHWEST ILLINOIS

CITY           SKY/WX    TMP DP  RH WIND       PRES   REMARKS
MOLINE         CLOUDY    32  25  75 SE7       30.25F HAZE    WCI  26
STERLING*      CLOUDY    30  25  80 SE5       30.27F WCI  25
SAVANNA*       CLOUDY    31  26  81 SE6       30.26F HAZE    WCI  26
$$

ILZ003-004-008-010-011-017-018-201800-
NORTH CENTRAL ILLINOIS

CITY           SKY/WX    TMP DP  RH WIND       PRES   REMARKS
ROCKFORD       LGT SNOW  29  25  85 S5        30.29S FOG     WCI  24
FREEPORT*      CLOUDY    28  25  86 SE6       30.28S FOG     WCI  22
ROCHELLE*      CLOUDY    29  26  89 CALM      30.27F FOG
DE KALB*       CLOUDY    28  25  89 S6        30.27S FOG     WCI  21
PERU*          CLOUDY    31  26  80 S6        30.29S WCI  25
$$

ILZ005-006-012>014-019>023-201800-
NORTHEAST ILLINOIS

CITY           SKY/WX    TMP DP  RH WIND       PRES   REMARKS
CHICAGO-OHARE  CLOUDY    31  23  72 SW6       30.27F WCI  25
CHICAGO-MIDWAY FLURRIES  33  26  75 S6        30.29S WCI  28
AURORA         CLOUDY    30  24  78 S6        30.28F HAZE    WCI  24
LANSING*       CLOUDY    32  26  79 SW6       30.29F WCI  26
JOLIET*        CLOUDY    32  25  76 S5        30.29F WCI  27
WAUKEGAN       CLOUDY    30  23  75 SW3       30.26F
DUPAGE AIRPORT CLOUDY    30  24  78 S6        30.27F WCI  24
KANKAKEE*      CLOUDY    32  27  83 S5        30.30F WCI  27
WHEELING       CLOUDY    32  23  69 S7        30.29F WCI  26
MORRIS*        CLOUDY    31  28  86 S5        30.29S WCI  26
ROMEOVILLE*    CLOUDY    32  26  81 SW7       30.28F WCI  25
NORTHERLY ISL    N/A     32  24  73 S9          N/A  WCI  24
$$

LMZ740>746-201800-
SOUTHERN LAKE MICHIGAN

STATION/POSITION SKY/WX   TEMP    WIND        PRES    VSBY  WAVE
                          AIR SEA DIR/SP/G                  HT/PER
                          (F)     (DEG/KT/KT) (MB)    (MI)  (FT/S)
WAUKEGAN HARBOR            31        CALM       N/A
HARRISON CRIB              31     200/ 12/ 14   N/A
BURNHAM HARBOR             32     200/  7/  9   N/A
CALUMET HARBOR             32     190/  3/  6 1024.3F
$$

ILZ025>027-034>036-040-047-049-050-058-095>099-201800-
WEST-CENTRAL ILLINOIS

CITY           SKY/WX    TMP DP  RH WIND       PRES   REMARKS
QUINCY         CLOUDY    36  31  82 S9        30.24F HAZE    WCI  29
GALESBURG*     CLOUDY    32  28  84 SE5       30.25F WCI  27
MACOMB*        CLOUDY    33  30  88 S8        30.28S FOG     WCI  26
JACKSONVILLE*  CLOUDY    38  31  76 SE7       30.26F WCI  33
PITTSFIELD*    CLOUDY    36  32  85 SE3       30.26F FOG
$$

ILZ028>032-037-038-041>044-048-051>054-059>061-201800-
CENTRAL ILLINOIS

CITY           SKY/WX    TMP DP  RH WIND       PRES   REMARKS
PONTIAC        CLOUDY    33  29  83 S6        30.30S WCI  28
BLOOMINGTON    CLOUDY    32  28  85 SE8       30.28F WCI  25
DECATUR        CLOUDY    33  28  81 S7        30.30S WCI  27
PEORIA         CLOUDY    33  26  75 S5        30.28S WCI  29
LACON*         CLOUDY    32  26  80 S5        30.27F WCI  27
LINCOLN*       CLOUDY    34  30  85 SE6       30.30S WCI  29
SPRINGFIELD    CLOUDY    36  27  69 SE9       30.29S WCI  29
TAYLORVILLE    CLOUDY    32  28  86 SE7       30.29F WCI  26
$$

ILZ033-039-045-046-055>057-062-063-201800-
EAST-CENTRAL ILLINOIS

CITY           SKY/WX    TMP DP  RH WIND       PRES   REMARKS
CHAMPAIGN      CLOUDY    32  27  81 S8        30.30F WCI  25
DANVILLE*      CLOUDY    33  26  75 S6        30.28S WCI  27
RANTOUL*       CLOUDY    34  29  83 S6        30.30S WCI  28
MATTOON        CLOUDY    33  25  72 S6        30.29F WCI  28
PARIS*         CLOUDY    33  29  85 CALM      30.32S
$$

ILZ079-100>102-201800-
SOUTHWEST ILLINOIS

CITY           SKY/WX    TMP DP  RH WIND       PRES   REMARKS
ALTON          CLOUDY    37  30  75 S9        30.28F WCI  31
BELLEVILLE     CLOUDY    37  31  79 SE5       30.28F WCI  33
CAHOKIA*       CLOUDY    39  32  76 SE6       30.28F WCI  35
SPARTA*        CLOUDY    37  30  78 CALM      30.30F
$$

ILZ064>066-069>071-074>076-080>082-084>086-088>090-092>094-201800-
SOUTH-CENTRAL ILLINOIS

CITY           SKY/WX    TMP DP  RH WIND       PRES   REMARKS
CARBONDALE     CLOUDY    38  30  73 CALM      30.30F
CAIRO*         CLOUDY    41  31  68 CALM      30.31S
EFFINGHAM*     CLOUDY    33  26  72 SE5       30.32F WCI  29
MARION         CLOUDY    37  30  75 E7        30.30F WCI  32
MT. VERNON     CLOUDY    36  27  69 E3        30.31F
CENTRALIA*     CLOUDY    35  28  78 SE6       30.30F WCI  29
SALEM*         CLOUDY    36  30  79 E3        30.30F
METROPOLIS*    CLOUDY    38  30  73 E3        30.30S
$$

ILZ067-068-072-073-078-083-087-091-201800-
SOUTHEAST ILLINOIS

CITY           SKY/WX    TMP DP  RH WIND       PRES   REMARKS
LAWRENCEVILLE  CLOUDY    33  27  78 CALM      30.33F
FLORA*         SUNNY     33  28  84 SE3       30.32F
FAIRFIELD*     CLOUDY    34  29  82 CALM      30.30F
HARRISBURG*    CLOUDY    36  29  77 E3        30.32F
ROBINSON*      CLOUDY    33  28  81 CALM      30.34S
CARMI*         CLOUDY    36  30  80 NE3       30.31F
$$

ABBREVIATIONS USED IN REMARKS
   TC - TEMPERATURE IN CELSIUS
  WCI - WIND CHILL INDEX
   HX - HEAT INDEX
  VSB - VISIBILITY
$$



USA.gov is the U.S. government's official web portal to all federal, state and local government web resources and services.